Flag for Brazil Weather past 2 weeks in Manaus, Amazonas, Brazil

Now
77 °F

Thundershowers. Passing clouds.


Feels Like: 78 °F
Forecast: 76 / 89 °F
Wind: 3 mph from West

Location: Manaus Aeroporto

Current Time: Mar 1, 2015 at 12:54:48 AM

Latest Report: Mar 1, 2015 at 12:00 AM


Visibility: N/A

Pressure: 29.86 "Hg

Humidity: 89%

Dew point: 73 °F

Location of ManausLocation

Historic Weather in Manaus — Graph

°F

Manaus temperature yesterday

Maximum temperature yesterday: 90 °F (at 2:00 PM)
Minimum temperature yesterday: 77 °F (at 3:00 AM)
Average temperature yesterday: 82 °F

Past Weeks' High & Low Weather Summary

 TemperatureHumidityPressure
High91 °F (Feb 20, 1:00 PM)100% (Feb 21, 5:00 PM)29.98 "Hg (Feb 21, 5:00 PM)
Low41 °F (Feb 21, 5:00 PM)52% (Feb 20, 1:00 PM)29.74 "Hg (Feb 16, 4:00 PM)
Average80 °F80%29.85 "Hg
* Reported Midnight between Feb 13 and Feb 14 — Midnight between Feb 28 and Mar 1, Manaus, Weather by CustomWeather, © 2015

Note: Actual official high and low records may vary slightly from our data, if they occured in-between our weather recording intervals... More about our weather records

Advertising

Manaus weather history for previous 24 hours

 ConditionsComfort  
Time TempWeatherWind HumidityBarometerVisibility
12:00 AM
Sun, Mar 1
77 °FThundershowers. Passing clouds.3 mph89%29.86 "HgN/A
11:00 PM
Sat, Feb 28
77 °FThunderstorms. Passing clouds.6 mph89%N/A3 mi
10:00 PM77 °FThunderstorms. Partly cloudy.3 mph94%N/A5 mi
9:00 PM79 °FThunderstorms. Passing clouds.9 mph84%N/A2 mi
8:00 PM84 °FPassing clouds.3 mph74%29.83 "HgN/A
7:00 PM84 °FPassing clouds.2 mph70%29.80 "HgN/A
6:00 PM86 °FPassing clouds.No wind66%29.77 "HgN/A
5:00 PM88 °FPassing clouds.3 mph62%29.74 "HgN/A
4:00 PM88 °FScattered clouds.6 mph59%29.74 "HgN/A
3:00 PM90 °FPartly sunny.5 mph59%29.77 "HgN/A
2:00 PM90 °FPartly sunny.7 mph59%29.83 "HgN/A
1:00 PM88 °FScattered clouds.6 mph62%29.86 "HgN/A
12:00 PM88 °FScattered clouds.3 mph66%29.89 "HgN/A
11:00 AM86 °FScattered clouds.5 mph70%29.92 "HgN/A
10:00 AM86 °FScattered clouds.5 mph70%29.95 "HgN/A
9:00 AM82 °FScattered clouds.3 mph79%29.95 "HgN/A
8:00 AM79 °FScattered clouds.2 mph94%29.92 "HgN/A
7:00 AM79 °FScattered clouds.2 mph89%29.89 "HgN/A
6:00 AM77 °FPassing clouds.No wind94%29.86 "HgN/A
5:00 AM79 °FPassing clouds.2 mph89%29.86 "HgN/A
4:00 AM79 °FClear.No wind84%29.83 "Hg10 mi
3:00 AM77 °FClear.2 mph89%29.83 "Hg10 mi
2:00 AM79 °FClear.3 mph89%29.83 "Hg10 mi
1:00 AM79 °FClear.3 mph84%29.83 "Hg10 mi
12:00 AM81 °FClear.2 mph84%29.86 "Hg10 mi
Weather by CustomWeather, © 2015

See weather overviewHow to use our weather pages